Regional Weather Roundup
Issued by NWS Upton, NY

Current Version | Previous Version | Graphics & Text | Print | Product List | Glossary Off
Versions: 1 2 3 4 5 6 7 8 9 10 11 12 13 14 15 16 17 18 19 20 21 22 23 24 25 26 27 28 29 30 31 32 33 34 35 36 37 38 39 40 41 42 43 44 45 46 47 48 49 50

000
ASUS41 KOKX 220608
RWROKX

REGIONAL WEATHER ROUNDUP
NATIONAL WEATHER SERVICE NEW YORK NY
100 AM EST WED FEB 22 2017

NOTE: "FAIR" INDICATES FEW OR NO CLOUDS BELOW 12,000 FEET WITH NO
SIGNIFICANT WEATHER AND/OR OBSTRUCTIONS TO VISIBILITY.

NYZ071-072-176-178-NJZ106-104-220700-
NEW YORK CITY METRO AREA

CITY           SKY/WX    TMP DP  RH WIND       PRES   REMARKS
Central Park   CLOUDY    43  33  68 VRB7      30.12F
Wall St Helipt NOT AVBL
LaGuardia APRT CLOUDY    45  33  63 SW12G18   30.09
Kennedy INTL   CLOUDY    41  37  86 SW7       30.12F
Breezy Point     N/A     39 N/A N/A SW5         N/A
Newark/Liberty CLOUDY    42  34  73 S7        30.10F
Teterboro      NOT AVBL
$$

NYZ177-179-078>081-220700-
LONG ISLAND NEW YORK

CITY           SKY/WX    TMP DP  RH WIND       PRES   REMARKS
Jones Beach      N/A     41 N/A N/A SW5         N/A
Matinecock PT    N/A     41 N/A N/A SW10        N/A
Farmingdale    NOT AVBL
MacArthur/ISP  NOT AVBL
Shirley        NOT AVBL
Westhampton    NOT AVBL
Southampton    NOT AVBL
Bridgehampton  NOT AVBL
East Hampton     N/A     39  35  85 S5        30.11F
Montauk          N/A     41  37  86 S6        30.12F
$$

NYZ052-065-067-220700-
HUDSON VALLEY

CITY           SKY/WX    TMP DP  RH WIND       PRES   REMARKS
White Plains   NOT AVBL
Newburgh       CLOUDY    41  32  70 CALM      30.07F
Montgomery     NOT AVBL
Poughkeepsie   NOT AVBL
Albany         CLOUDY    39  30  70 S6        30.05F WCI  35
$$

NJZ001-105-106-008-010-013-015-019>022-104-220700-
NEW JERSEY

CITY           SKY/WX    TMP DP  RH WIND       PRES   REMARKS
Newark/Liberty CLOUDY    42  34  73 S7        30.10F
Teterboro      NOT AVBL
Caldwell       NOT AVBL
Somerville     NOT AVBL
Linden         NOT AVBL
Sussex         NOT AVBL
Andover          N/A     41  32  70 S3        30.05F
Trenton        NOT AVBL
Millville      NOT AVBL
Atlantic City  CLOUDY    41  36  82 S5        30.12F
Wrightstown    PTCLDY    38  34  85 CALM      30.09F
Toms River     NOT AVBL
Belmar         NOT AVBL
$$

PAZ047>061-062-071-220700-
EASTERN PENNSYLVANIA

CITY           SKY/WX    TMP DP  RH WIND       PRES   REMARKS
Philadelphia   CLOUDY    42  35  76 W3        30.12F
Allentown      NOT AVBL
Scranton       NOT AVBL
$$

CTZ002-004>006-009-010-012-RIZ004-006-007-MAZ004-011-015-220700-
SOUTHERN NEW ENGLAND
 IN CT

CITY           SKY/WX    TMP DP  RH WIND       PRES   REMARKS
Bradley INTL   CLOUDY    36  31  82 S9        30.07F WCI  29
Hartford       CLOUDY    37  31  78 S6        30.09F WCI  32
Danbury        NOT AVBL
Wtrbury/Oxford CLOUDY    37  28  70 SW5       30.08F WCI  34
Bridgeport     NOT AVBL
Meriden        CLOUDY    38  31  76 S6        30.09F WCI  33
New Haven      NOT AVBL
Chester          N/A     37  34  87 VRB6      30.09F WCI  33
Groton         PTCLDY    39  34  82 S7        30.10F WCI  34
Wilimantic     CLOUDY    34  30  85 CALM      30.10F

 IN RI

CITY           SKY/WX    TMP DP  RH WIND       PRES   REMARKS
Providence     CLOUDY    36  31  82 S5        30.11F WCI  32
Block Island   PTCLDY    41  36  82 SW10      30.12F
Westerly       CLOUDY    40  33  76 S5        30.12F
 IN MA

CITY           SKY/WX    TMP DP  RH WIND       PRES   REMARKS
Boston         CLOUDY    38  31  76 SW12      30.09F WCI  30
Worcester      PTCLDY    34  27  75 S10       30.03F WCI  26
Westfield      CLOUDY    36  30  79 S7        30.06F WCI  30
Provincetown   CLOUDY    37  31  78 S10       30.13F WCI  30
Nantucket      CLOUDY    37  31  78 SW10      30.14F WCI  30
$$

ANZ330-335-338-340-345-350-353-355-220700-
COASTAL MARINE OBSERVATIONS


STATION/POSITION TIME  SKY/WX   TEMP    WIND        PRES    VSBY  WAVE
                                AIR SEA DIR/SP/G                  HT/PER
                 (UTC)          (F)     (DEG/KT/KT) (MB)    (MI)  (FT/S)
NY HARB ENTRANCE NOT AVBL
20 S FIRE ISLAND 0550            43 43  200/ 10/ 10 1019.8          2/ 3
GREAT SOUTH BAY  NOT AVBL
23 SSW MONTAUK P NOT AVBL
15 E BARNEGAT LI 0530               43                N/A           2/ 7
HUDSON CANYON    0450               49              1021.4          2/ 6
KINGS POINT      0548            42 40              1019.1
EXECUTION ROCKS  NOT AVBL
CENTRAL LI SOUND 0530            40     200/  6/  6   N/A           0
EASTERN LI SOUND NOT AVBL
ROBBINS REEF     0548            42     200/  9/ 12 1019.7
$$


>>>>>>>>>>>>>>>>>>>>>>>>>>>> KEY <<<<<<<<<<<<<<<<<<<<<<<<<<<
>                                                          <
>     SKY/WX - Sky Condition/Present Weather               <
>     TMP    - Temperature in Fahrenheit                   <
>     DP     - Dew Point in Fahrenheit                     <
>     RH     - Relative Humidity in Percent                <
>     WIND   - Direction (from) and Speed in MPH           <
>     PRES   - Mean Sea Level Pressure (inches of Hg)      <
>     WCI    - Wind Chill Index                            <
>     VSB    - VISIBILITY IN MILES                         <
>     HX     - HEAT INDEX                                  <
>     TC     - TEMPERATURE IN CELSIUS                      <
>     VRB    - VARIABLE WIND DIRECTION                     <
>                                                          <
>>>>>>>>>>>>>>>>>>>>>>>>>>>> KEY <<<<<<<<<<<<<<<<<<<<<<<<<<<



USA.gov is the U.S. government's official web portal to all federal, state and local government web resources and services.